El-Hamman, Egypt

9:51 PM EET on December 06, 2016 (GMT +0200)
Borg El Arab International

Weather History for HEBA - March, 2014

Change the Weather History Date:

Friday, March 14, 2014

  Actual Average (HEAX) Record (HEAX)
Temperature  
Mean Temperature 58 °F -  
Max Temperature 64 °F 66 °F 84 °F (2013)
Min Temperature 53 °F 51 °F 44 °F (2005)
Degree Days  
Heating Degree Days 6    
Growing Degree Days 8 (Base 50)    
Moisture  
Dew Point 42 °F    
Average Humidity 55    
Maximum Humidity 72    
Minimum Humidity 42    
Precipitation  
Precipitation 0.00 in - - ()
Sea Level Pressure  
Sea Level Pressure 30.11 in    
Wind  
Wind Speed 10 mph ()    
Max Wind Speed 21 mph    
Max Gust Speed -    
Visibility 6.2 miles    
Events      
Averages and records for this station are not official NWS values.
T = Trace of Precipitation, MM = Missing Value Source: Averaged Metar Reports

Daily Weather History Graph

Daily Weather History Graph

Search for Another Location

Airport or City:

Trip Planner

Search our weather history database for the weather conditions in past years. The results will help you decide how hot, cold, wet, or windy it might be!

Date:

Astronomy

Mar. 14, 2014 Rise Set
Actual Time 6:12 AM EET 6:08 PM EET
Civil Twilight 5:48 AM EET 6:32 PM EET
Nautical Twilight 5:20 AM EET 7:00 PM EET
Astronomical Twilight 4:52 AM EET 7:28 PM EET
Moon 4:17 PM EET (3/14) 4:35 AM EET (3/14)
Length of Visible Light 12h 43m
Length of Day
11h 55m
Waxing Gibbous, 95% of the Moon is Illuminated
Mar 14
Waxing Gibbous
Mar 16
Full
Mar 24
Last Quarter
Mar 30
New
Apr 7
First Quarter

Hourly Weather History & Observations

Time (EET) Temp. Dew Point Humidity Pressure Visibility Wind Dir Wind Speed Gust Speed Precip Events Conditions
12:00 AM 55.4 °F 44.6 °F 67% 30.06 in 6.2 mi WNW 11.5 mph - N/A   Scattered Clouds
1:00 AM 55.4 °F 42.8 °F 63% 30.06 in 6.2 mi NW 11.5 mph - N/A   Scattered Clouds
2:00 AM 55.4 °F 41.0 °F 58% 30.06 in 6.2 mi NW 11.5 mph - N/A   Scattered Clouds
3:00 AM 55.4 °F 41.0 °F 58% 30.06 in 6.2 mi NNW 11.5 mph - N/A   Scattered Clouds
4:00 AM 55.4 °F 41.0 °F 58% 30.06 in 6.2 mi NW 11.5 mph - N/A   Scattered Clouds
5:00 AM 55.4 °F 41.0 °F 58% 30.06 in 6.2 mi WNW 11.5 mph - N/A   Scattered Clouds
6:00 AM 53.6 °F 42.8 °F 67% 30.06 in 6.2 mi NNW 11.5 mph - N/A   Scattered Clouds
7:00 AM 57.2 °F 42.8 °F 59% 30.09 in 6.2 mi NNW 13.8 mph - N/A   Scattered Clouds
8:00 AM 59.0 °F 41.0 °F 51% 30.09 in 6.2 mi NNW 16.1 mph - N/A   Scattered Clouds
9:00 AM 60.8 °F 39.2 °F 45% 30.12 in 6.2 mi NNW 17.3 mph - N/A   Scattered Clouds
10:00 AM 62.6 °F 39.2 °F 42% 30.12 in 6.2 mi NW 20.7 mph - N/A   Scattered Clouds
11:00 AM 64.4 °F 41.0 °F 42% 30.15 in 6.2 mi NNW 18.4 mph - N/A   Scattered Clouds
12:00 PM 64.4 °F 41.0 °F 42% 30.15 in 6.2 mi North 18.4 mph - N/A   Scattered Clouds
1:00 PM 64.4 °F 42.8 °F 45% 30.12 in 6.2 mi North 13.8 mph - N/A   Scattered Clouds
2:00 PM 62.6 °F 41.0 °F 45% 30.12 in 6.2 mi North 13.8 mph - N/A   Scattered Clouds
3:00 PM 62.6 °F 39.2 °F 42% 30.12 in 6.2 mi North 11.5 mph - N/A   Scattered Clouds
4:00 PM 62.6 °F 39.2 °F 42% 30.12 in 6.2 mi NNW 13.8 mph - N/A   Scattered Clouds
5:00 PM 60.8 °F 41.0 °F 48% 30.12 in 6.2 mi NW 11.5 mph - N/A   Scattered Clouds
6:00 PM 59.0 °F 41.0 °F 51% 30.12 in 6.2 mi NNW 8.1 mph - N/A   Scattered Clouds
7:00 PM 57.2 °F 42.8 °F 59% 30.15 in 6.2 mi NNW 5.8 mph - N/A   Scattered Clouds
8:00 PM 55.4 °F 42.8 °F 63% 30.15 in 6.2 mi NNW 4.6 mph - N/A   Scattered Clouds
9:00 PM 55.4 °F 42.8 °F 63% 30.18 in 6.2 mi Calm Calm - N/A   Scattered Clouds
10:00 PM 53.6 °F 44.6 °F 72% 30.18 in 6.2 mi Calm Calm - N/A   Scattered Clouds
11:00 PM 53.6 °F 44.6 °F 72% 30.18 in 6.2 mi Calm Calm - N/A   Scattered Clouds